Terminal Aerodrome Forecast
Issued by NWS Charleston, WV

Current Version | Previous Version | Text Only | Print | Product List | Glossary Off
Versions: 1 2 3 4 5 6 7 8 9 10 11 12 13 14 15 16 17 18 19 20 21 22 23 24 25 26 27 28 29 30 31

000
FTUS41 KRLX 260800 AAB
TAFCRW
TAF AMD
KCRW 260845Z 2609/2706 00000KT 1SM BR BKN001
     FM261230 00000KT 3SM BR SCT002
     FM261300 00000KT 6SM BR FEW004
     FM261400 10004KT P6SM FEW045=

USA.gov is the U.S. government's official web portal to all federal, state and local government web resources and services.